Weather Roundup
Issued by NWS

Home | Current Version | Previous Version | Graphics & Text | Print | Product List | Glossary Off
Versions: 1 2 3 4 5 6 7 8 9 10 11 12 13 14 15 16 17 18 19 20 21 22 23 24 25 26 27 28 29 30 31 32 33 34 35 36 37 38 39 40 41 42 43 44 45 46 47 48 49 50

000
NZUS93 KARX 042210
HRRWXR

CURRENT HOURLY OBSERVATIONS ACROSS
MUCH OF THE UPPER MISSISSIPPI VALLEY
NATIONAL WEATHER SERVICE LA CROSSE WI
500 PM CDT MON MAY 04 2015


...SOUTHEAST MINNESOTA...


CITY           SKY/WX    TMP DP  RH WIND       PRES   REMARKS
ROCHESTER      PTSUNNY   66  38  35 E8        30.17S
ROCHESTER/MAYO FAIR      68  35  29 NE7       30.17R
WINONA         PTSUNNY   70  36  28 E6        30.15F
AUSTIN         PTSUNNY   64  39  39 NE12      30.15S
ALBERT LEA     PTSUNNY   70  32  24 NE12      30.15S
DODGE CENTER   PTSUNNY   66  34  30 E12       30.17S
PRESTON        PTSUNNY   64  41  42 N5        30.16S
OWATONNA       CLOUDY    66  30  26 E10       30.16S
FARIBAULT      CLOUDY    68  30  24 N10       30.16F
$$

...ELSEWHERE IN MINNESOTA...


CITY           SKY/WX    TMP DP  RH WIND       PRES   REMARKS
MINNEAPOLIS    PTSUNNY   71  28  20 NE12      30.16F
INTNL FALLS    MOSUNNY   64  26  23 N6        30.19F
DULUTH         PTSUNNY   66  19  16 N7        30.18S
RED WING       PTSUNNY   70  28  21 NE6       30.15S
REDWOOD FALLS  PTSUNNY   74  25  16 E9        30.14F
MANKATO        PTSUNNY   68  34  28 NE10      30.16F
WORTHINGTON    CLOUDY    68  28  22 E13G21    30.15F
FAIRMONT       PTSUNNY   70  27  19 E14       30.14F
$$

...SOUTHWEST WISCONSIN...


CITY           SKY/WX    TMP DP  RH WIND       PRES   REMARKS
LA CROSSE      PTSUNNY   74  38  27 VRB7      30.12F
PRAIRIE DU CHI CLOUDY    73  45  37 CALM      30.10S
BOSCOBEL       PTSUNNY   76  47  35 E8        30.11S
LONE ROCK      CLOUDY    73  54  51 VRB5      30.11S
PLATTEVILLE    CLOUDY    72  55  54 NE8       30.11F
FORT MC COY    PTSUNNY   73  31  21 NW8       30.13F
CAMP DOUGLAS   PTSUNNY   75  34  22 VRB7      30.13S
VIROQUA        FAIR      69  39  33 N6        30.14S
WIS DELLS      NOT AVBL
$$

...ELSEWHERE IN WISCONSIN...


CITY           SKY/WX    TMP DP  RH WIND       PRES   REMARKS
MILWAUKEE      PTSUNNY   59  40  49 NE12      30.17R
MADISON        PTSUNNY   71  55  56 E10       30.12S
GREEN BAY      MOSUNNY   68  41  37 SE18G24   30.14R
EAU CLAIRE     PTSUNNY   71  28  20 N5        30.15S
BLACK RVR FLS  FAIR      71  31  22 CALM      30.14S
MEDFORD        MOSUNNY   65  30  26 NW3       30.16S
WAUSAU         MOSUNNY   68  26  20 N8        30.14S
WIS RAPIDS     PTSUNNY   71  31  22 N3        30.16R
MARSHFIELD     PTSUNNY   69  33  26 CALM      30.15S
RICE LAKE      SUNNY     68  22  17 E3        30.18S
$$

...NORTHEAST IOWA...


CITY           SKY/WX    TMP DP  RH WIND       PRES   REMARKS
DECORAH        PTSUNNY   70  41  35 NE6       30.13S
MASON CITY     CLOUDY    68  39  34 NE12      30.15F
CHARLES CITY   CLOUDY    68  43  40 NE9       30.14S
OELWEIN        CLOUDY    70  57  64 E12       30.11F
$$

...ELSEWHERE IN IOWA...


CITY           SKY/WX    TMP DP  RH WIND       PRES   REMARKS
DES MOINES     CLOUDY    69  60  73 N6        30.09R
IOWA CITY      CLOUDY    72  62  71 NE10      30.07F
FORT DODGE     CLOUDY    64  46  52 NE13      30.13F
$$

...NORTHERN ILLINOIS...


CITY           SKY/WX    TMP DP  RH WIND       PRES   REMARKS
CHICAGO-OHARE  CLOUDY    67  54  63 NE12      30.13R
CHICAGO-MIDWAY PTSUNNY   67  56  67 E14       30.13S
MOLINE         PTSUNNY   75  61  61 NE14      30.06F
ROCKFORD       MOSUNNY   75  57  53 NE9       30.12S
PEORIA         PTSUNNY   77  63  61 E6        30.07F
$$

NOTE: "FAIR" INDICATES FEW OR NO CLOUDS BELOW 12,000 FEET WITH NO
SIGNIFICANT WEATHER AND/OR OBSTRUCTIONS TO VISIBILITY. WIND
SPEEDS ARE IN MILES-PER-HOUR.



USA.gov is the U.S. government's official web portal to all federal, state and local government web resources and services.